Regional Weather Roundup
Issued by NWS

Home | Current Version | Previous Version | Graphics & Text | Print | Product List | Glossary On
Versions: 1 2 3 4 5 6 7 8 9 10 11 12 13 14 15 16 17 18 19 20 21 22 23 24 25 26 27 28 29 30 31 32 33 34 35 36 37 38 39 40 41 42 43 44 45 46 47 48 49 50
848
ASUS45 KCYS 221910
RWRWY

WYOMING REGIONAL WEATHER ROUNDUP
NATIONAL WEATHER SERVICE CHEYENNE WY
100 PM MDT THU JUN 22 2017

NOTE:  "FAIR" INDICATES FEW OR NO CLOUDS BELOW 12,000 FEET
WITH NO SIGNIFICANT WEATHER AND/OR OBSTRUCTIONS TO VISIBILITY.

WYZ001-222000-
YELLOWSTONE NATIONAL PARK

CITY           SKY/WX    TMP DP  RH WIND       PRES   REMARKS
LK YELLOWSTONE   N/A     57  28  33 VRB7      30.20S
W YELLOWSTONE  NOT AVBL

$$
WYZ002>013-054>058-071-098>099-222000-
NORTHERN WYOMING

CITY           SKY/WX    TMP DP  RH WIND       PRES   REMARKS
JACKSON        SUNNY     68  19  15 SW12      30.13S
CODY           FAIR      67  35  30 NE9       30.06S
GREYBULL       FAIR      76  25  15 NW14G24   29.97F
WORLAND        FAIR      77  30  17 N9        29.98F
SHERIDAN       FAIR      72  40  31 N10       30.01S
BUFFALO        PTSUNNY   65  39  38 VRB5      30.05S
GILLETTE       FAIR      70  33  25 NE12G20   30.00F
NEWCASTLE      FAIR      72  32  23 NW17G23   29.98F

$$
WYZ014>020-022>026-101>103-222000-
CENTRAL WYOMING

CITY           SKY/WX    TMP DP  RH WIND       PRES   REMARKS
BIG PINEY      FAIR      76  30  18 N13G24    30.13S
PINEDALE       FAIR      70  32  24 NW9       30.15S
DUBOIS         FAIR      70  14  11 N18G26    30.09S
LANDER         FAIR      73  38  27 NW3       30.00F
RIVERTON       FAIR      72  30  21 MISG      30.02F
CASPER         FAIR      71  35  26 VRB5      30.03F
DOUGLAS        FAIR      71  37  28 VRB3      30.03F

$$
WYZ021-027>030-104>119-222000-
SOUTHERN WYOMING

CITY           SKY/WX    TMP DP  RH WIND       PRES   REMARKS
EVANSTON       FAIR      75  28  17 W18       30.18R
KEMMERER         N/A     70  32  24 W16G23    30.18S
FORT BRIDGER   FAIR      79  27  14 NW21G30   30.17F
ROCK SPRINGS   FAIR      80  23  12 W26G37    30.08F
DIXON          FAIR      83  32  16 W12G17    30.08F
RAWLINS        FAIR      79  32  18 W16G24    30.07S
SARATOGA       FAIR      81  30  16 W16G26    30.08F
LARAMIE        FAIR      80  40  23 N16G24    30.05F
CHEYENNE       FAIR      72  40  31 N24G33    30.00F
TORRINGTON     FAIR      80  30  16 N13G20    29.92F
PINE BLUFFS    FAIR      79  37  22 N23G31    29.95F

$$




USA.gov is the U.S. government's official web portal to all federal, state and local government web resources and services.